This demonstration page uses our WeatherBlox Daily Observations layout. Learn more.

40.92945, -100.16068

Hourly Observations for March 3, 2017

Temp ( °F °C ) Dew Point ( °F °C ) Humidity (%) Winds ( mph kmh ) Pressure ( in mb ) Visibility ( mi km ) Precip ( " mm )
12:15 am 00:15 Cloudy 30 -1.1 17 -8.2 59 59 SE 9 15 30.5 1033 10 16.0934 0 0
12:35 am 00:35 Cloudy 29 -1.7 18 -7.7 64 64 SSE 8 13 30.5 1033 10 16.0934 0 0
12:55 am 00:55 Mostly Cloudy 28 -2.5 18 -7.9 67 67 SSE 8 13 30.53 1034 10 16.0934 0 0
1:15 am 01:15 Partly Cloudy 27 -2.8 18 -7.8 69 69 SSE 9 15 30.53 1034 10 16.0934 0 0
1:35 am 01:35 Partly Cloudy 26 -3.4 18 -8 71 71 SSE 6 9 30.53 1034 10 16.0934 0 0
1:55 am 01:55 Partly Cloudy 27 -3 18 -7.8 70 70 S 10 17 30.53 1034 10 16.0934 0 0
2:15 am 02:15 Clear 27 -2.8 18 -8 68 68 S 13 20 30.53 1034 10 16.0934 0 0
2:35 am 02:35 Clear 27 -2.7 17 -8.1 67 67 SSE 8 13 30.53 1034 10 16.0934 0 0
2:55 am 02:55 Clear 27 -2.6 17 -8.1 66 66 S 9 15 30.53 1034 10 16.0934 0 0
3:15 am 03:15 Clear 27 -3 17 -8.1 68 68 S 7 11 30.53 1034 10 16.0934 0 0
3:35 am 03:35 Clear 27 -3 17 -8.6 66 66 SSE 8 13 30.53 1034 10 16.0934 0 0
3:55 am 03:55 Clear 26 -3.4 17 -8.6 68 68 SSE 6 9 30.5 1033 10 16.0934 0 0
4:15 am 04:15 Clear 25 -3.7 16 -9 67 67 SSE 6 9 30.5 1033 10 16.0934 0 0
4:35 am 04:35 Clear 26 -3.5 16 -9 66 66 SSE 7 11 30.5 1033 10 16.0934 0 0
4:55 am 04:55 Clear 27 -3 15 -9.5 61 61 SE 8 13 30.5 1033 10 16.0934 0 0
5:15 am 05:15 Clear 26 -3.2 15 -9.6 62 62 ESE 5 7 30.5 1033 10 16.0934 0 0
5:35 am 05:35 Clear 25 -4 15 -9.2 67 67 ESE 5 7 30.5 1033 10 16.0934 0 0
5:55 am 05:55 Clear 26 -3.6 15 -9.3 65 65 SSE 8 13 30.48 1032 10 16.0934 0 0
6:15 am 06:15 Clear 27 -2.7 15 -9.2 61 61 SSE 13 20 30.48 1032 10 16.0934 0 0
6:35 am 06:35 Clear 27 -2.6 15 -9.4 60 60 SSE 14 22 30.48 1032 10 16.0934 0 0
6:55 am 06:55 Clear 28 -2.5 15 -9.3 60 60 S 18 30 30.42 1030 10 16.0934 0 0
7:15 am 07:15 Sunny 28 -2.3 16 -8.8 61 61 S 17 28 30.42 1030 10 16.0934 0 0
7:35 am 07:35 Sunny 28 -2 17 -8.2 63 63 S 15 24 30.42 1030 10 16.0934 0 0
7:55 am 07:55 Sunny 29 -1.4 19 -7.5 64 64 S 17 28 30.42 1030 10 16.0934 0 0
8:15 am 08:15 Sunny 31 -0.8 19 -7.3 62 62 S 17 28 30.42 1030 10 16.0934 0 0
8:35 am 08:35 Sunny 32 -0.2 19 -7 61 61 S 20 31 30.42 1030 10 16.0934 0 0
8:55 am 08:55 Sunny 33 0.4 20 -6.6 60 60 S 18 30 30.39 1029 10 16.0934 0 0
9:15 am 09:15 Sunny 34 1.3 21 -6.2 58 58 S 16 26 30.39 1029 10 16.0934 0 0
9:35 am 09:35 Sunny 36 2 21 -6.1 55 55 SSE 13 20 30.39 1029 10 16.0934 0 0
9:55 am 09:55 Sunny 37 2.9 21 -6 52 52 S 15 24 30.36 1028 10 16.0934 0 0
10:15 am 10:15 Sunny 38 3.5 21 -6 50 50 S 16 26 30.33 1027 10 16.0934 0 0
10:35 am 10:35 Sunny 40 4.2 21 -6 48 48 S 16 26 30.3 1026 10 16.0934 0 0
10:55 am 10:55 Sunny 41 5.1 21 -6 45 45 S 13 20 30.3 1026 10 16.0934 0 0
11:15 am 11:15 Sunny 43 6.3 22 -5.7 42 42 S 15 24 30.27 1025 10 16.0934 0 0
11:35 am 11:35 Sunny 45 7 21 -6 39 39 SSW 12 19 30.24 1024 10 16.0934 0 0
11:55 am 11:55 Sunny 47 8.3 22 -5.7 37 37 SSW 12 19 30.24 1024 10 16.0934 0 0
12:15 pm 12:15 Sunny 49 9.3 21 -6 34 34 SSW 15 24 30.21 1023 10 16.0934 0 0
12:35 pm 12:35 Sunny 50 10 20 -6.4 31 31 S 13 20 30.18 1022 10 16.0934 0 0
12:55 pm 12:55 Sunny 52 11 21 -6.3 29 29 SSW 15 24 30.18 1022 10 16.0934 0 0
1:15 pm 13:15 Sunny 53 11.6 20 -6.6 28 28 SSW 14 22 30.12 1020 10 16.0934 0 0
1:35 pm 13:35 Sunny 54 12.4 20 -6.6 26 26 SSW 13 20 30.12 1020 10 16.0934 0 0
1:55 pm 13:55 Sunny 57 13.8 20 -6.6 24 24 SW 15 24 30.09 1019 10 16.0934 0 0
2:15 pm 14:15 Sunny 59 14.9 20 -6.9 22 22 WSW 9 15 30.06 1018 10 16.0934 0 0
2:35 pm 14:35 Sunny 58 14.2 19 -7.3 22 22 SW 9 15 30.06 1018 10 16.0934 0 0
2:55 pm 14:55 Sunny 60 15.6 19 -7.4 20 20 SSW 9 15 30.06 1018 10 16.0934 0 0
3:15 pm 15:15 Sunny 61 16 16 -8.7 18 18 SW 12 19 30.03 1017 10 16.0934 0 0
3:35 pm 15:35 Sunny 61 15.9 16 -9.1 17 17 SW 13 20 30.03 1017 10 16.0934 0 0
3:55 pm 15:55 Sunny 63 17.2 17 -8.5 17 17 SW 10 17 30 1016 10 16.0934 0 0
4:15 pm 16:15 Sunny 64 17.6 16 -9 15 15 SW 8 13 30 1016 10 16.0934 0 0
4:35 pm 16:35 Sunny 64 17.7 15 -9.5 15 15 SW 9 15 30 1016 10 16.0934 0 0
4:55 pm 16:55 Sunny 63 17.1 15 -9.5 15 15 SSW 8 13 30 1016 10 16.0934 0 0
5:15 pm 17:15 Sunny 62 16.4 16 -8.7 17 17 W 6 9 30.03 1017 10 16.0934 0 0
5:35 pm 17:35 Sunny 60 15.5 17 -8.3 19 19 WNW 9 15 30.03 1017 10 16.0934 0 0
5:55 pm 17:55 Sunny 59 14.9 17 -8.4 19 19 W 9 15 30.03 1017 10 16.0934 0 0
6:15 pm 18:15 Sunny 56 13.2 18 -8 22 22 W 8 13 30.06 1018 10 16.0934 0 0
6:35 pm 18:35 Clear 52 11.2 17 -8.6 24 24 WNW 7 11 30.06 1018 10 16.0934 0 0
6:55 pm 18:55 Clear 47 8.1 16 -8.8 29 29 NNW 5 7 30.09 1019 7 11.26538 0 0
7:15 pm 19:15 Clear 43 6.1 17 -8.1 36 36 N 6 9 30.12 1020 10 16.0934 0 0
7:35 pm 19:35 Clear 39 4.1 19 -7.1 44 44 N 5 7 30.18 1022 10 16.0934 0 0
7:55 pm 19:55 Clear 38 3.6 19 -7.3 45 45 N 7 11 30.18 1022 10 16.0934 0 0
8:15 pm 20:15 Clear 39 4 18 -7.6 43 43 N 7 11 30.18 1022 10 16.0934 0 0
8:35 pm 20:35 Clear 36 2.1 19 -7.5 49 49 Calm 30.18 1022 10 16.0934 0 0
8:55 pm 20:55 Clear 39 3.7 17 -8.1 42 42 Calm 30.15 1021 10 16.0934 0 0
9:15 pm 21:15 Clear 34 1.2 19 -7.3 54 54 Calm 30.21 1023 10 16.0934 0 0
9:35 pm 21:35 Clear 33 0.6 18 -7.6 55 55 Calm 30.21 1023 10 16.0934 0 0
9:55 pm 21:55 Clear 32 -0.2 20 -6.7 62 62 W 5 7 30.21 1023 10 16.0934 0 0
10:15 pm 22:15 Clear 31 -0.5 20 -6.7 63 63 Calm 30.21 1023 10 16.0934 0 0
10:35 pm 22:35 Clear 31 -0.6 20 -6.8 63 63 Calm 30.21 1023 10 16.0934 0 0
10:55 pm 22:55 Clear 28 -2.4 19 -7.1 70 70 Calm 30.24 1024 10 16.0934 0 0
11:15 pm 23:15 Clear 27 -2.8 20 -6.8 74 74 N 3 6 30.24 1024 10 16.0934 0 0
11:35 pm 23:35 Clear 27 -2.7 19 -7 73 73 NNW 5 7 30.24 1024 10 16.0934 0 0
11:55 pm 23:55 Clear 25 -3.7 19 -7.5 75 75 WNW 5 7 30.24 1024 10 16.0934 0 0

Powered by AerisWeather